User: anonymous   Login
Location: Fort Wayne
(41.1310°N, 85.1290°W)
Time: 23:19:25
(UTC-04:00)
Language:

Cosmos 2056 Rocket - Orbit

View from above orbital plane
View from above orbital plane
View from above satellite
View from above satellite

Ground track
Ground track

The orbit data is extracted from the following two-line orbital elements,

1 20433U 90004B   16272.05414791  .00000119  00000-0  49524-4 0  9993
2 20433  74.0345 117.3708 0041730 309.6363 213.2263 14.35952109397578
Epoch (UTC): 28 September 2016 01:17:58
Eccentricity: 0.0041730
inclination: 74.0345°
perigee height: 742 km
apogee height: 802 km
right ascension of ascending node: 117.3708°
argument of perigee: 309.6363°
revolutions per day: 14.35952109
mean anomaly at epoch: 213.2263°
orbit number at epoch: 39757

The dashed part of the orbit path shows where the satellite is in the earth's shadow,  

DLR